This is the latest recevied weather packets stored in our database for station/object SP6PGH-13. If no packets are shown the sender has not sent any weather packets the latest 10 day(s).
| Time | Temp. | Humidity | Pressure | Rain* | Wind** | Luminosity | Snow |
|---|---|---|---|---|---|---|---|
| 1787900349 | 20° C | 59% | 1002 hPa | - | - | 282 W/m² | - |
| 1787899448 | 19.44° C | 59% | 1001.9 hPa | - | - | 239 W/m² | - |
| 1787898547 | 18.33° C | 63% | 1002.2 hPa | - | - | 199 W/m² | - |
| 1787897646 | 17.22° C | 68% | 1002.4 hPa | - | - | 81 W/m² | - |
| 1787896745 | 16.11° C | 69% | 1002.4 hPa | - | - | 83 W/m² | - |
| 1787895844 | 15.56° C | 73% | 1002.6 hPa | - | - | 105 W/m² | - |
| 1787894943 | 15° C | 73% | 1002.9 hPa | - | - | 81 W/m² | - |
| 1787894042 | 14.44° C | 74% | 1002.7 hPa | - | - | 46 W/m² | - |
| 1787893141 | 14.44° C | 74% | 1002.9 hPa | - | - | 35 W/m² | - |
| 1787892240 | 13.89° C | 75% | 1002.9 hPa | - | - | 29 W/m² | - |
| 1787891339 | 13.89° C | 76% | 1003.1 hPa | - | - | 21 W/m² | - |
| 1787890438 | 13.33° C | 76% | 1003 hPa | - | - | 11 W/m² | - |
| 1787889537 | 13.33° C | 77% | 1003.2 hPa | - | - | 3 W/m² | - |
| 1787888636 | 13.33° C | 77% | 1003.3 hPa | - | - | 1 W/m² | - |
| 1787887735 | 12.78° C | 78% | 1003.5 hPa | - | - | - | - |
| 1787886835 | 13.33° C | 77% | 1003.4 hPa | - | - | - | - |
| 1787885933 | 13.89° C | 75% | 1003.3 hPa | - | - | - | - |
| 1787885040 | 13.89° C | 74% | 1003.2 hPa | - | - | - | - |
| 1787884131 | 13.89° C | 74% | 1003.2 hPa | - | - | - | - |
| 1787883230 | 13.89° C | 73% | 1003.5 hPa | - | - | - | - |
| 1787882328 | 14.44° C | 73% | 1003.6 hPa | - | - | - | - |
| 1787881427 | 14.44° C | 72% | 1003.7 hPa | - | - | - | - |
| 1787880526 | 14.44° C | 71% | 1003.8 hPa | - | - | - | - |
| 1787879626 | 14.44° C | 70% | 1003.8 hPa | - | - | - | - |
| 1787878724 | 14.44° C | 70% | 1003.9 hPa | - | - | - | - |
* Rain since midnight (hover to see other rain measurements)
** Current wind speed in m/s (hover to see current wind gust speed)